This is the latest recevied weather packets stored in our database for station/object GJ7DNI-13. If no packets are shown the sender has not sent any weather packets the latest 10 day(s).
| Time | Temp. | Humidity | Pressure | Rain* | Wind** | Luminosity | Snow |
|---|---|---|---|---|---|---|---|
| 1777830301 | 17.22° C | 73% | 1008.6 hPa | 0 mm | - | 223 W/m² | - |
| 1777830001 | 16.67° C | 73% | 1008.7 hPa | 0 mm | - | 244 W/m² | - |
| 1777829701 | 16.67° C | 73% | 1008.7 hPa | 0 mm | - | 251 W/m² | - |
| 1777829401 | 16.67° C | 73% | 1008.7 hPa | 0 mm | - | 241 W/m² | - |
| 1777829101 | 17.22° C | 72% | 1008.6 hPa | 0 mm | - | 113 W/m² | - |
| 1777828801 | 17.22° C | 73% | 1008.6 hPa | 0 mm | - | 299 W/m² | - |
| 1777828501 | 17.22° C | 73% | 1008.5 hPa | 0 mm | - | 192 W/m² | - |
| 1777828201 | 17.22° C | 72% | 1008.5 hPa | 0 mm | - | 309 W/m² | - |
| 1777827901 | 17.78° C | 71% | 1008.5 hPa | 0 mm | - | 322 W/m² | - |
| 1777827601 | 17.22° C | 72% | 1008.5 hPa | 0 mm | - | 336 W/m² | - |
| 1777827301 | 17.22° C | 73% | 1008.5 hPa | 0 mm | - | 350 W/m² | - |
| 1777827001 | 17.22° C | 76% | 1008.4 hPa | 0 mm | - | 366 W/m² | - |
| 1777826701 | 16.67° C | 73% | 1008.3 hPa | 0 mm | - | 385 W/m² | - |
| 1777826401 | 16.67° C | 76% | 1008.3 hPa | 0 mm | - | 390 W/m² | - |
| 1777826101 | 17.22° C | 74% | 1008.3 hPa | 0 mm | - | 406 W/m² | - |
| 1777825801 | 16.67° C | 75% | 1008.4 hPa | 0 mm | - | 439 W/m² | - |
| 1777825501 | 16.67° C | 78% | 1008.4 hPa | 0 mm | - | 501 W/m² | - |
| 1777825201 | 17.22° C | 75% | 1008.4 hPa | 0 mm | - | 218 W/m² | - |
| 1777824901 | 17.22° C | 75% | 1008.4 hPa | 0 mm | - | 483 W/m² | - |
| 1777824601 | 16.67° C | 76% | 1008.4 hPa | 0 mm | - | 487 W/m² | - |
| 1777824301 | 17.22° C | 76% | 1008.3 hPa | 0 mm | - | 506 W/m² | - |
| 1777824001 | 16.67° C | 76% | 1008.3 hPa | 0 mm | - | 504 W/m² | - |
| 1777823701 | 17.22° C | 75% | 1008.3 hPa | 0 mm | - | 543 W/m² | - |
| 1777823401 | 17.78° C | 76% | 1008.3 hPa | 0 mm | - | 478 W/m² | - |
| 1777823101 | 17.22° C | 75% | 1008.4 hPa | 0 mm | - | 550 W/m² | - |
* Rain latest hour (hover to see other rain measurements)
** Current wind speed in m/s (hover to see current wind gust speed)